[[{"header":{"parameterUnit":"m.s-1","parameterCategory":1,"la1":30.2991,"la2":30.254,"lo1":-89.0895,"lo2":-89.0444,"dy":0.0017,"dx":0.0017,"nx":28,"ny":28,"refTime":"2023-07-17T21:00:00:Z","depth":0,"parameterNumber":2,"parameterNumberName":"U-component_of_WINDS"},"data":[0,0,0,0,0,0,0,0,0,0,0,0,0,0,0,0,0,0,0,0,0,0,0,0,0,0,0,0,0,0,0,0,0,0,0,0,0,0,0,0,0,0,0,0,0,0,0,0,0,0,0,0,0,0,0,0,0,0,2.7242,2.7243,0,2.7291,2.7291,2.7292,2.7242,2.724,2.7238,2.7236,2.7286,2.7289,2.7292,0,0,0,0,0,0,0,0,0,0,0,0,0,2.7105,2.7108,2.7242,2.7243,2.7243,2.7291,2.7291,2.7292,2.7242,2.724,2.7238,2.7236,2.7285,2.7288,2.7292,0,0,0,0,0,0,0,0,0,0,0,0,0,2.716,2.7109,2.7242,2.7224,2.7223,2.7291,2.7291,2.7292,2.7243,2.724,2.7237,2.7234,2.7283,2.7288,2.7293,2.738,0,0,2.7307,2.7309,0,0,0,0,0,0,0,0,2.7157,2.7165,2.7226,2.7226,2.7224,2.7257,2.7261,2.7321,2.7244,2.7235,2.7236,2.7233,2.7279,2.7284,2.7299,2.7382,2.7384,2.7307,2.731,2.7312,2.7314,0,0,0,0,0,0,0,2.7153,2.7163,2.7261,2.7227,2.7226,2.7214,2.7218,2.7272,2.7273,2.7236,2.7232,2.7239,2.7278,2.7295,2.73,2.7385,2.7307,2.7311,2.7314,2.7316,2.754,2.7543,0,0,0,0,0,0,2.7152,2.716,2.726,2.7263,2.7183,2.7218,2.7224,2.725,2.7272,2.7273,2.7241,2.7236,2.7288,2.7294,2.7301,2.7403,2.7312,2.7317,2.7319,2.7537,2.7541,2.7544,0,0,0,0,0,0,2.7149,2.7161,2.7258,2.7211,2.7222,2.7224,2.7254,2.7252,2.7269,2.7276,2.7276,2.7259,2.7286,2.7295,2.736,2.7404,2.7319,2.7323,2.7533,2.7538,2.7542,2.7608,0,0,0,0,0,0,2.7145,2.716,2.7194,2.7212,2.7225,2.7316,2.7256,2.7255,2.7277,2.7271,2.7292,2.7293,2.7284,2.7353,2.7365,2.7409,2.7327,2.7529,2.7535,2.7541,2.7602,2.7614,2.7625,0,0,0,0,0,2.7141,2.721,2.7196,2.7208,2.7266,2.7319,2.7326,2.7315,2.7281,2.7314,2.7319,2.7292,2.7398,2.7361,2.7373,2.7419,2.7526,2.7533,2.754,2.7596,2.7612,2.7625,0,0,0,0,0,0,2.7197,2.7212,2.7196,2.7274,2.7296,2.731,2.7352,2.7332,2.7363,2.7356,2.7341,2.7346,2.7415,2.7424,2.7382,2.7504,2.7456,2.7466,2.7495,2.7509,2.7521,2.7516,2.733,0,0,0,0,0,2.7219,2.7261,2.7272,2.7339,2.7351,2.735,2.7372,2.7362,2.7383,2.7392,2.7401,2.7423,2.7461,2.7486,2.7521,2.7604,2.7606,2.7641,2.7653,2.7662,2.767,2.7713,2.7728,2.7567,2.7567,2.7567,0,0,2.7264,2.7277,2.7304,2.7351,2.7366,2.7409,2.7358,2.7405,2.7437,2.7399,2.7461,2.7469,2.7492,2.7566,2.7599,2.7575,2.7716,2.7671,2.7679,2.7682,2.7722,2.7737,2.775,2.7572,2.7571,2.757,0,0,2.7367,2.7382,2.7439,2.7456,2.748,2.7479,2.7493,2.7511,2.7514,2.7576,2.7548,2.7586,2.7652,2.7669,2.7686,2.7796,2.7773,2.7809,2.7868,2.791,2.7922,2.7933,2.797,2.7984,2.7817,2.7817,2.7817,0,2.7419,2.7483,2.7471,2.7521,2.7541,2.751,2.7567,2.7584,2.7618,2.7633,2.7607,2.7688,2.7702,2.7778,2.7805,2.7821,2.7835,2.7805,2.7921,2.7932,2.7943,2.7978,2.7992,2.7821,2.7821,2.782,2.782,0,2.7545,2.759,2.7633,2.7667,2.7693,2.7746,2.7742,2.7769,2.7757,2.7759,2.7821,2.7837,2.7874,2.7892,2.7881,2.7967,2.7951,2.7924,2.7875,2.7962,2.7995,2.8008,2.7827,2.7825,2.7824,2.7823,0,0,2.7684,2.771,2.7726,2.7741,2.7765,2.7799,2.7851,2.7887,2.791,2.7936,2.7978,2.8035,2.8009,2.8029,2.8019,2.8056,2.814,2.8024,2.8024,2.8043,2.8233,2.8252,2.8268,2.8125,2.8128,2.813,2.8231,0,2.7785,2.7875,2.7866,2.795,2.7991,2.7962,2.8007,2.8026,2.8029,2.8064,2.8067,2.8107,2.8071,2.8082,2.8118,2.8122,2.8177,2.8115,2.8163,2.8164,2.8155,2.8286,2.8306,2.84,2.8244,2.8246,2.8247,0,2.7916,2.7945,2.8034,2.8051,2.8068,2.8108,2.814,2.8174,2.8196,2.8195,2.8218,2.8202,2.8253,2.8206,2.8275,2.8233,2.8252,2.8258,2.8261,2.8263,2.8209,2.8289,2.843,2.8443,2.8268,2.8266,2.8265,0,2.8005,2.8067,2.8128,2.8141,2.8164,2.8193,2.8203,2.8222,2.8244,2.8273,2.8287,2.8321,2.834,2.8366,2.836,2.8326,2.8431,2.8383,2.843,2.843,2.8451,2.845,2.8595,2.8468,2.8468,2.8468,2.8467,0,2.8118,2.8173,2.8168,2.8205,2.8265,2.8255,2.8315,2.8322,2.8339,2.8376,2.8354,2.839,2.838,2.8415,2.8411,2.8468,2.8477,2.8477,2.8475,2.8478,2.8478,2.8489,2.8481,2.8471,2.8471,2.847,2.8469,0,2.8227,2.8226,2.829,2.8306,2.8311,2.8355,2.8369,2.8403,2.8405,2.8452,2.8463,2.8466,2.8506,2.8503,2.8548,2.8545,2.8615,2.8606,2.8608,2.8605,2.8651,2.8646,2.8807,2.8826,2.8689,2.869,2.8691,0,2.8298,2.8339,2.836,2.8384,2.8396,2.8435,2.8457,2.8449,2.8473,2.8501,2.8532,2.857,2.86,2.8665,2.8671,2.8705,2.8695,2.8749,2.87,2.8701,2.8693,2.869,2.8693,2.8758,2.876,2.8761,2.8762,0,2.8423,2.8421,2.8454,2.8488,2.8515,2.8541,2.8565,2.8585,2.8579,2.8607,2.8648,2.8671,2.8718,2.8755,2.8788,2.8798,2.8779,2.8778,2.879,2.8792,2.879,2.879,2.8631,2.8774,2.8773,2.8772,2.8771,2.8771,2.8514,2.8549,2.8568,2.8606,2.8623,2.8646,2.8678,2.8684,2.8718,2.8755,2.8748,2.8794,2.8814,2.8855,2.8869,2.8904,2.8885,2.8903,2.8907,2.8911,2.8916,2.8787,2.8911,2.891,2.891,2.891,2.8909,0,2.8636,2.8647,2.8683,2.8716,2.8745,2.8726,2.8751,2.8776,2.8817,2.8837,2.8867,2.8913,2.895,2.8959,2.8994,2.902,2.9012,2.9029,2.9026,2.9028,2.8932,2.8917,2.9035,2.9035,2.9035,2.9035,2.9035,2.9035,2.8703,2.876,2.876,2.8825,2.8836,2.8881,2.8896,2.8917,2.8933,2.8986,2.9016,2.9021,2.9037,2.9073,2.9105,2.9107,2.912,2.914,2.9138,2.9048,2.9035,2.9023,2.9008,2.9144,2.9144,2.9231,2.9231,2.9232]},{"header":{"parameterUnit":"m.s-1","parameterCategory":1,"la1":30.2991,"la2":30.254,"lo1":-89.0895,"lo2":-89.0444,"dy":0.0017,"dx":0.0017,"nx":28,"ny":28,"refTime":"2023-07-17T21:00:00:Z","depth":0,"parameterNumber":3,"parameterNumberName":"V-component_of_WINDS"},"data":[0,0,0,0,0,0,0,0,0,0,0,0,0,0,0,0,0,0,0,0,0,0,0,0,0,0,0,0,0,0,0,0,0,0,0,0,0,0,0,0,0,0,0,0,0,0,0,0,0,0,0,0,0,0,0,0,0,0,1.2167,1.2168,0,1.2214,1.2214,1.2215,1.221,1.2209,1.2209,1.2208,1.2257,1.2259,1.2261,0,0,0,0,0,0,0,0,0,0,0,0,0,1.2075,1.2077,1.2167,1.2168,1.2168,1.2214,1.2214,1.2215,1.221,1.2209,1.2208,1.2208,1.2256,1.2258,1.2261,0,0,0,0,0,0,0,0,0,0,0,0,0,1.2118,1.2077,1.2167,1.2171,1.2172,1.2214,1.2214,1.2215,1.221,1.2209,1.2208,1.2207,1.2255,1.2258,1.2261,1.2301,0,0,1.227,1.2271,0,0,0,0,0,0,0,0,1.2115,1.2121,1.217,1.2171,1.2172,1.2205,1.22,1.2244,1.2211,1.2196,1.2208,1.2207,1.224,1.2244,1.2256,1.2304,1.2306,1.227,1.2272,1.2273,1.2274,0,0,0,0,0,0,0,1.2112,1.2119,1.2186,1.2171,1.2172,1.2171,1.2176,1.2208,1.2224,1.2197,1.2197,1.2202,1.2241,1.2253,1.2257,1.2306,1.227,1.2273,1.2275,1.2276,1.239,1.2391,0,0,0,0,0,0,1.2108,1.2116,1.2184,1.2187,1.214,1.2174,1.2179,1.2196,1.2223,1.2227,1.2203,1.2202,1.2248,1.2253,1.2258,1.2308,1.2273,1.2276,1.2278,1.2389,1.239,1.2392,0,0,0,0,0,0,1.2106,1.2114,1.2182,1.2152,1.216,1.2177,1.2195,1.2197,1.2209,1.2228,1.2231,1.2213,1.2248,1.2254,1.2291,1.2309,1.2278,1.228,1.2387,1.2389,1.2391,1.2406,0,0,0,0,0,0,1.2103,1.2113,1.2129,1.2152,1.2162,1.2214,1.2196,1.2199,1.2214,1.2213,1.2238,1.2241,1.2247,1.2286,1.2294,1.2313,1.2283,1.2386,1.2388,1.239,1.2404,1.2409,1.2412,0,0,0,0,0,1.21,1.2132,1.213,1.2138,1.2181,1.2215,1.222,1.2227,1.2216,1.2231,1.2243,1.224,1.2306,1.229,1.2298,1.2319,1.2384,1.2387,1.239,1.2403,1.2408,1.2412,0,0,0,0,0,0,1.211,1.2135,1.2133,1.2173,1.2191,1.2214,1.2234,1.2232,1.2255,1.2253,1.226,1.2266,1.2303,1.2314,1.2296,1.2359,1.2344,1.2348,1.235,1.2356,1.2359,1.2356,1.2285,0,0,0,0,0,1.2117,1.2142,1.2162,1.2195,1.2204,1.2217,1.2232,1.2236,1.2256,1.2264,1.2279,1.2298,1.2324,1.234,1.2364,1.2406,1.2411,1.2424,1.2428,1.2431,1.2435,1.2458,1.2464,1.2401,1.2401,1.2401,0,0,1.2132,1.2148,1.2163,1.2197,1.2212,1.2238,1.2224,1.2252,1.2271,1.2268,1.2303,1.2315,1.2337,1.2377,1.2395,1.2387,1.2454,1.2435,1.2437,1.2439,1.2462,1.2467,1.2473,1.2403,1.2402,1.2402,0,0,1.2171,1.2186,1.2215,1.223,1.2253,1.2262,1.2269,1.2291,1.2299,1.2334,1.2332,1.2355,1.2398,1.2415,1.2429,1.2474,1.2472,1.2482,1.2503,1.2525,1.253,1.2534,1.2551,1.2557,1.2486,1.2486,1.2486,0,1.2186,1.2225,1.223,1.2258,1.2274,1.2272,1.2301,1.2316,1.2346,1.2357,1.2348,1.2402,1.2417,1.246,1.2471,1.2482,1.2491,1.2479,1.2529,1.2533,1.2537,1.2553,1.2559,1.2487,1.2487,1.2486,1.2486,0,1.2242,1.2269,1.229,1.2318,1.2336,1.2365,1.2375,1.2392,1.2394,1.2403,1.2439,1.2457,1.2485,1.2496,1.2498,1.2539,1.2534,1.2527,1.2512,1.2544,1.2559,1.2566,1.2488,1.2488,1.2488,1.2487,0,0,1.229,1.2321,1.2329,1.2342,1.2367,1.2388,1.2416,1.2443,1.2458,1.2478,1.2503,1.2539,1.2533,1.2549,1.2553,1.2572,1.2607,1.2563,1.2563,1.2571,1.2654,1.266,1.2667,1.2606,1.2607,1.2608,1.2652,0,1.2332,1.2383,1.2389,1.2434,1.2459,1.2457,1.2482,1.25,1.251,1.2532,1.2543,1.2569,1.2558,1.2568,1.2587,1.2599,1.2624,1.2596,1.2629,1.263,1.2624,1.2674,1.268,1.2722,1.2658,1.2659,1.266,0,1.2389,1.241,1.2458,1.2479,1.249,1.2513,1.2538,1.2559,1.258,1.2585,1.2603,1.2604,1.2634,1.2617,1.2659,1.2639,1.2653,1.2661,1.2663,1.2667,1.2647,1.268,1.2735,1.2741,1.2669,1.2669,1.2668,0,1.2419,1.246,1.2494,1.2505,1.2531,1.2547,1.2558,1.2578,1.2594,1.2616,1.2626,1.2651,1.2666,1.2685,1.2693,1.268,1.2735,1.2718,1.274,1.274,1.2752,1.2752,1.2811,1.2761,1.276,1.276,1.276,0,1.2466,1.2495,1.2508,1.2529,1.2562,1.2568,1.2601,1.2612,1.2629,1.2652,1.2652,1.2674,1.2683,1.2706,1.2713,1.2747,1.2753,1.2758,1.276,1.2759,1.2758,1.2768,1.2766,1.2762,1.2762,1.2761,1.2761,0,1.2506,1.2516,1.2552,1.2574,1.258,1.2603,1.2621,1.2642,1.2651,1.268,1.2687,1.2702,1.2729,1.2739,1.2772,1.2777,1.2816,1.2815,1.2809,1.2809,1.2831,1.2829,1.2899,1.2909,1.2852,1.2852,1.2853,0,1.2535,1.2558,1.2581,1.2597,1.2609,1.2633,1.2649,1.2657,1.2674,1.2699,1.2716,1.2743,1.2765,1.2809,1.2823,1.2848,1.2848,1.2871,1.2852,1.285,1.2849,1.2848,1.285,1.2875,1.2875,1.2876,1.2876,0,1.2587,1.259,1.2613,1.2638,1.2657,1.2677,1.2696,1.2709,1.2719,1.2738,1.2766,1.2783,1.2817,1.2844,1.287,1.2883,1.2881,1.2882,1.2889,1.2888,1.2884,1.2886,1.2819,1.288,1.288,1.288,1.2879,1.2879,1.2622,1.2642,1.2662,1.2688,1.2703,1.2721,1.2741,1.2752,1.2776,1.2804,1.2807,1.2837,1.2857,1.2892,1.2905,1.2929,1.2923,1.2932,1.2935,1.2937,1.2939,1.2879,1.2934,1.2934,1.2934,1.2933,1.2933,0,1.2674,1.2687,1.271,1.2737,1.2757,1.2754,1.2775,1.2792,1.2818,1.2837,1.2859,1.2891,1.2917,1.2933,1.2959,1.2975,1.2975,1.2982,1.2981,1.2984,1.2943,1.2934,1.2981,1.2981,1.2981,1.2981,1.2981,1.2981,1.2703,1.2737,1.2743,1.2784,1.2796,1.2826,1.2838,1.2855,1.287,1.2906,1.2927,1.2937,1.2955,1.2982,1.3006,1.301,1.302,1.3027,1.3031,1.2992,1.2987,1.2982,1.2975,1.3029,1.3029,1.307,1.307,1.3071]}]]